CAPE
1994 1738 1673 1542 1443 1685 1808 1601 1774 1887 1798 1625 1454 1272 1090 1152 1190 1127 1116 1390 1498 1523 1739 1983 1959 1828 1837 1744 2010 2093 2034 1923 1760 1625 1502 1352 1167 1007 908 753 782 850
2171 1885 1826 1765 1599 1590 1906 1873 1798 1966 1927 1757 1573 1379 1276 1112 1189 1243 1212 1418 1670 1627 1672 1864 1979 1935 1882 1802 1965 2051 2022 1932 1814 1657 1556 1422 1265 1127 959 981 1000 945
2344 2055 1908 1940 1850 1714 1848 2037 1883 1985 2037 1934 1773 1586 1405 1392 1346 1409 1430 1499 1745 1786 1730 1823 1968 1948 1874 1817 1931 2011 2007 1937 1824 1720 1607 1451 1305 1184 1006 997 1101 1078
2492 2256 2085 2070 2095 1967 1846 2019 2053 2032 2096 2089 1967 1753 1503 1719 1628 1566 1589 1629 1778 1852 1833 1812 1953 2012 1840 1809 1834 1902 1918 1881 1809 1736 1616 1470 1338 1240 1128 1137 1104 1113
2653 2480 2333 2239 2280 2247 2023 2019 2129 2128 2144 2194 2100 1944 1723 1835 1894 1789 1696 1691 1762 1890 1906 1889 1881 2006 1985 1834 1832 1844 1837 1825 1749 1684 1574 1466 1388 1292 1220 1214 1206 1102
2803 2700 2558 2460 2425 2446 2300 2174 2192 2187 2181 2211 2218 2089 1893 1900 1990 1981 1873 1764 1752 1843 1920 1924 1928 1969 2039 1957 1861 1833 1791 1749 1729 1615 1532 1462 1424 1366 1290 1174 1008 822
2912 2940 2912 2760 2619 2558 2496 2381 2338 2266 2205 2244 2337 2244 2106 2046 2046 2047 2003 1882 1775 1802 1890 1927 1942 1987 2052 2045 1934 1835 1804 1755 1677 1525 1473 1471 1451 1332 1026 942 886 830
3003 3034 3140 3104 2924 2724 2645 2536 2512 2476 2330 2301 2387 2432 2316 2225 2147 2111 2079 2022 1868 1837 1856 1918 1970 2015 2048 2066 2011 1929 1827 1752 1652 1477 1356 1327 1140 1104 1049 947 890 807
3135 3117 3148 3241 3171 3007 2791 2680 2607 2651 2603 2413 2438 2517 2497 2396 2293 2162 2116 2048 1952 1934 1900 1892 1928 2055 2083 2091 2053 1973 1880 1801 1659 1450 1299 1204 1155 1079 1006 912 842 774
3348 3284 3279 3280 3269 3189 3033 2850 2768 2666 2712 2636 2522 2540 2541 2497 2407 2269 2130 2098 2048 1998 1978 1896 1936 2047 2108 2112 2066 1988 1899 1815 1672 1463 1258 1160 1123 1010 911 833 764 729
3496 3455 3440 3398 3378 3322 3210 3063 2872 2785 2752 2750 2629 2532 2554 2542 2485 2356 2203 2134 2115 2068 2000 1932 1940 2039 2112 2136 2073 1998 1936 1851 1708 1507 1268 1138 1074 977 870 883 827 688
3479 3510 3465 3468 3454 3393 3325 3202 3080 2894 2750 2763 2732 2566 2509 2525 2524 2440 2326 2209 2118 2074 2032 2003 1954 1988 2094 2142 2120 2050 1969 1864 1732 1560 1294 1094 1042 963 932 925 880 709
3226 3297 3370 3428 3454 3457 3363 3282 3191 3063 2878 2734 2765 2734 2607 2553 2497 2439 2358 2276 2183 2059 2033 2029 1975 1916 1995 2095 2103 2076 1991 1868 1712 1554 1346 1123 1041 1021 1000 979 911 750
3046 3090 3149 3233 3364 3430 3457 3361 3250 3130 3008 2858 2753 2764 2745 2660 2582 2492 2412 2322 2239 2130 2040 2030 1986 1882 1858 1936 1973 1945 1921 1849 1718 1547 1382 1264 1182 1114 1057 1026 915 758
3340 3267 3150 3085 3154 3344 3398 3385 3286 3206 3122 2996 2835 2747 2722 2664 2588 2509 2430 2354 2286 2184 2063 2000 1936 1865 1796 1791 1840 1849 1850 1808 1685 1538 1421 1349 1259 1172 1099 1053 894 718
3459 3407 3086 2233 2470 3004 3320 3389 3315 3254 3198 3092 2967 2871 2797 2702 2647 2565 2473 2393 2332 2207 1988 2014 2012 1956 1853 1742 1742 1768 1806 1781 1690 1546 1438 1359 1288 1204 1118 1039 824 644
2061 2328 2015 2051 2574 3053 3300 3330 3289 3238 3237 3207 3124 3047 2924 2794 2696 2598 2505 2426 2329 2217 2030 2021 2046 2012 1931 1799 1646 1724 1733 1715 1664 1552 1438 1353 1297 1244 1211 1001 723 590
1634 1624 2067 2607 2996 3221 3342 3353 3308 3275 3256 3238 3216 3142 3037 2889 2751 2640 2541 2460 2386 2272 2076 2047 2059 2002 1897 1788 1680 1674 1700 1668 1604 1530 1444 1366 1316 1252 1158 884 646 604
1822 2182 2639 3030 3254 3348 3406 3320 3232 3214 3210 3246 3224 3197 3113 2980 2854 2725 2591 2498 2422 2313 2156 2020 2032 1940 1853 1737 1674 1599 1676 1639 1580 1517 1442 1351 1258 1171 966 757 656 618
1757 2137 2684 3249 3490 3516 3450 3254 3092 3101 3169 3218 3237 3221 3155 3032 2884 2730 2648 2541 2428 2324 2174 2027 2043 1974 1885 1780 1647 1530 1612 1611 1542 1470 1395 1266 1115 948 824 762 699 610
1594 1883 2341 2964 3437 3574 3506 3301 3086 3001 3065 3141 3187 3212 3157 3061 2933 2808 2674 2541 2435 2368 2234 2123 2064 1984 1909 1816 1692 1586 1494 1514 1470 1433 1323 1195 1071 986 916 814 704 570
626 904 1557 2442 3040 3381 3434 3362 3241 3048 2952 3040 3092 3128 3147 3054 2925 2824 2721 2592 2494 2407 2286 2160 2122 2039 1950 1873 1814 1733 1595 1437 1340 1325 1255 1180 1096 1010 970 857 695 538
896 742 584 704 1679 2750 3216 3298 3311 3192 2885 2954 3013 3070 3061 2996 2898 2763 2658 2550 2476 2420 2325 2254 2154 2082 1978 1919 1876 1817 1698 1512 1430 1404 1336 1236 1140 1048 970 867 700 542
891 764 644 803 1160 1799 2298 2905 3099 3146 3122 2917 2914 2983 3025 3013 2926 2767 2630 2539 2505 2447 2402 2335 2232 2148 2048 1950 1877 1789 1735 1628 1525 1467 1397 1311 1187 1082 1006 924 768 569
787 902 867 748 1015 1063 1424 2208 2720 3047 3076 3033 2835 2845 2905 2959 2954 2828 2653 2534 2486 2454 2408 2340 2230 2181 2136 2054 1922 1833 1748 1669 1585 1503 1397 1316 1202 1118 1023 966 853 578
571 694 769 820 921 1011 888 882 1798 2617 2880 2862 2802 2777 2796 2747 2778 2731 2685 2605 2490 2400 2344 2304 2223 2188 2173 2139 2039 1917 1842 1736 1645 1576 1489 1388 1251 1173 1080 965 857 641
Wind_Speed
33 36 38 36 36 36 34 34 33 31 28 26 25 23 23 25 27 27 26 24 21 22 23 23 23 22 23 26 30 31 31 31 29 28 29 30 29 30 30 30 29 28
31 36 37 35 36 36 34 34 33 31 29 26 24 26 27 29 28 28 27 25 23 22 23 23 23 24 24 25 28 31 31 31 30 27 29 31 30 30 30 31 30 28
33 35 36 35 33 30 29 33 34 33 31 28 27 28 29 30 29 29 28 25 23 23 23 24 24 24 26 26 28 29 31 32 31 29 29 31 30 30 29 30 29 29
34 36 36 35 34 32 31 33 34 35 35 32 27 28 30 31 31 30 28 25 24 23 24 25 25 25 26 28 28 28 31 32 31 30 29 29 30 30 30 29 30 29
34 35 39 39 39 40 39 35 32 35 36 31 30 31 30 31 31 29 28 26 24 24 25 26 25 25 26 28 29 28 29 30 30 30 30 30 30 31 29 30 30 30
36 35 38 41 42 44 44 37 32 34 37 38 34 33 31 31 31 30 29 28 27 25 25 27 26 25 27 28 29 28 29 30 29 30 30 31 31 30 30 30 30 30
39 38 36 39 40 42 43 39 35 33 35 36 36 33 32 31 30 30 30 30 30 27 26 27 27 26 27 29 29 29 29 30 30 30 31 30 31 31 30 30 31 31
39 40 37 36 36 38 38 38 37 34 32 34 32 31 32 31 30 31 31 32 30 27 26 27 27 27 28 29 29 29 29 29 31 31 31 31 32 32 32 30 30 31
41 41 39 35 34 34 34 35 35 34 32 30 30 32 33 32 32 32 32 32 31 29 27 26 27 28 28 30 30 30 30 30 31 32 32 32 32 33 33 31 30 30
43 42 41 38 34 33 32 32 33 33 32 30 30 33 33 33 33 33 34 33 32 30 29 28 27 28 29 30 30 30 30 31 31 33 32 32 33 33 32 31 30 30
45 44 42 39 36 35 31 30 31 33 33 31 32 32 33 34 34 34 34 34 32 31 31 30 28 28 30 30 30 30 31 31 32 33 33 33 32 32 31 30 29 30
46 45 41 39 37 35 31 30 32 34 35 34 32 31 32 34 34 33 32 32 32 32 32 32 31 30 30 31 31 31 31 31 32 33 34 33 32 31 30 29 28 29
47 45 44 42 39 36 35 34 33 35 36 36 34 31 32 33 34 33 31 31 32 32 32 32 32 31 31 32 32 31 31 32 32 33 34 33 31 31 30 28 27 28
47 46 46 43 40 39 38 37 37 38 38 38 37 33 33 33 33 31 30 31 32 32 32 34 34 32 31 32 32 32 32 32 33 33 34 33 31 31 30 28 28 28
49 49 49 46 43 42 41 40 40 40 39 38 38 36 35 34 33 32 32 32 31 31 31 33 34 33 33 33 33 33 32 33 34 34 34 35 33 31 31 30 28 28
48 50 49 48 45 43 42 40 40 40 40 37 35 35 35 35 34 35 34 32 30 30 32 33 33 33 33 36 36 33 33 34 34 33 34 35 34 32 31 31 30 28
45 46 46 44 43 43 44 41 39 42 43 40 35 34 34 35 36 36 36 32 30 31 32 32 33 33 36 41 38 37 36 35 35 33 33 34 34 34 32 32 30 29
46 45 44 42 42 43 45 44 43 43 45 44 39 34 35 37 36 37 37 35 33 32 32 33 33 32 40 44 41 38 38 37 36 35 33 33 34 34 33 32 32 31
51 50 49 47 46 46 47 48 47 45 47 48 42 38 38 38 37 37 37 37 37 35 33 32 33 35 42 45 42 40 40 40 36 37 35 33 34 35 33 33 33 33
50 51 50 49 49 49 50 50 50 48 49 50 46 42 40 39 38 37 37 38 39 38 35 33 33 38 44 45 43 42 42 42 37 39 37 35 35 36 34 32 33 34
50 49 49 49 49 51 51 50 49 49 48 49 47 44 42 41 39 38 37 38 39 39 38 37 35 39 44 45 43 43 43 43 39 39 38 36 35 36 35 32 32 34
56 57 54 50 50 52 52 51 50 50 49 50 49 46 44 43 41 40 38 38 38 39 41 39 36 42 45 44 44 43 45 41 40 40 40 37 36 37 35 32 31 33
52 49 50 54 55 54 54 53 53 53 53 54 51 49 47 44 42 42 41 39 38 40 41 40 38 43 44 44 45 46 45 41 41 41 41 38 36 37 36 33 31 32
51 46 49 51 54 55 55 55 56 57 56 56 52 50 48 44 43 43 42 41 40 39 40 41 40 43 44 45 46 47 45 43 43 43 42 39 36 37 36 32 31 36
53 53 47 43 49 52 54 55 54 57 58 57 54 51 48 47 45 44 44 42 40 39 39 40 42 46 44 45 46 46 45 44 45 44 43 39 37 36 36 33 30 32
49 54 54 49 44 44 48 49 50 53 56 56 54 51 50 50 48 47 45 45 44 41 42 43 45 49 44 43 46 47 47 47 47 46 43 40 37 37 36 32 30 30
Wind_Direction
258 255 259 256 250 249 254 257 253 252 256 263 270 275 288 297 301 307 307 298 295 297 298 304 312 318 319 324 330 332 332 333 330 327 328 329 329 330 332 332 329 327
256 255 251 243 241 245 248 255 254 252 254 259 264 270 280 290 297 299 301 296 290 294 296 299 308 315 317 317 327 331 332 330 330 324 325 329 329 331 333 332 330 325
254 254 249 238 242 252 254 254 253 249 249 252 259 272 282 288 293 294 294 291 288 289 295 297 301 311 315 314 322 329 332 331 330 325 323 327 327 330 330 328 327 327
256 253 246 239 245 254 254 251 250 248 245 245 263 281 284 283 288 292 290 289 285 286 289 295 300 305 311 312 318 327 332 332 328 324 322 320 324 327 327 325 327 327
258 251 243 242 249 254 255 255 254 251 249 250 264 278 281 281 285 288 287 286 284 282 285 292 297 302 306 309 315 323 329 331 327 323 321 321 321 324 324 323 326 329
252 252 248 248 252 255 256 256 253 251 249 251 266 276 277 279 280 284 285 287 284 281 282 287 295 300 303 307 312 319 326 330 328 324 322 322 320 321 320 323 324 327
248 251 251 249 251 252 253 252 249 248 248 251 260 268 271 274 278 281 284 286 284 280 279 284 292 298 298 303 310 316 323 329 329 327 324 320 318 320 321 321 323 325
249 248 248 247 249 251 253 252 250 248 249 252 260 265 267 271 275 276 278 282 282 280 276 279 287 294 296 300 308 314 321 324 329 329 325 321 318 319 320 319 320 322
245 244 244 244 246 247 251 251 249 247 248 254 257 258 261 266 270 272 273 277 280 280 277 276 283 290 293 298 306 313 319 324 327 328 326 323 322 320 319 317 317 320
240 240 241 243 243 245 250 252 252 250 251 253 253 254 260 262 266 267 267 273 282 283 279 277 279 286 291 296 304 310 316 323 325 325 325 325 324 319 318 320 320 316
241 242 243 245 247 248 251 253 255 256 254 255 253 255 260 264 266 266 267 273 281 283 280 278 278 283 289 294 299 305 311 317 322 323 323 324 323 319 318 320 321 320
242 244 247 249 252 252 253 253 255 258 259 255 256 260 263 266 271 270 271 277 278 276 275 276 276 279 287 291 297 301 306 312 318 321 321 322 321 319 319 319 319 318
244 245 246 249 252 253 252 252 252 254 258 258 258 261 266 268 271 273 271 273 273 271 272 274 276 277 282 287 293 300 306 309 314 319 320 320 320 318 317 317 315 314
246 247 248 249 249 252 254 256 256 252 252 255 256 260 264 267 269 272 270 269 270 269 269 270 272 275 280 285 290 298 302 306 311 316 318 318 318 317 315 315 313 311
243 242 243 245 247 249 253 259 261 255 250 251 254 258 260 265 267 270 270 269 268 267 268 269 272 276 279 284 289 296 299 302 308 314 316 315 315 316 313 311 309 309
238 238 240 241 243 246 248 254 259 256 252 252 255 260 263 263 266 269 270 271 270 266 266 268 271 273 283 294 291 291 294 296 302 310 314 313 313 312 311 311 309 307
233 234 237 239 242 244 244 248 252 252 252 254 258 263 264 262 264 268 269 270 270 267 268 269 271 274 289 288 294 298 294 294 300 305 308 310 311 311 311 309 305 306
236 235 235 238 241 245 247 247 247 249 250 251 259 268 265 260 263 265 267 269 266 267 269 270 273 280 284 286 291 297 297 293 297 301 304 307 308 310 308 306 305 305
237 238 238 239 240 242 245 247 247 248 247 248 259 270 266 262 263 262 263 267 268 269 270 273 272 280 281 286 291 295 298 296 295 300 302 305 305 307 307 306 303 303
234 237 238 239 240 241 243 245 246 246 245 246 256 266 265 262 262 262 259 262 265 270 272 272 274 275 281 286 291 295 295 296 293 298 300 304 305 303 304 306 305 304
229 237 237 236 238 240 242 245 246 244 245 248 254 261 262 262 262 262 261 261 263 267 269 270 271 279 280 284 290 293 293 293 289 293 297 301 302 300 302 306 305 303
224 222 227 234 237 238 239 242 245 247 248 251 254 255 256 257 257 258 262 263 263 264 264 266 268 278 279 282 288 289 290 285 287 292 295 298 301 297 297 300 301 300
228 228 228 224 227 234 238 240 243 246 248 250 252 254 255 256 257 257 260 265 266 264 265 265 266 273 281 282 285 288 283 282 286 288 292 296 298 295 295 298 298 299
231 231 224 226 229 231 233 236 240 243 247 249 251 253 254 256 256 256 259 263 265 266 268 266 266 271 280 280 284 286 286 283 282 285 289 293 293 292 292 295 300 307
231 232 238 230 230 231 231 232 234 240 242 245 247 250 253 254 254 254 256 258 261 264 270 268 263 263 272 276 281 285 285 279 281 283 287 291 291 291 291 293 297 302
226 232 234 235 234 236 235 237 237 239 241 243 245 247 250 250 250 251 253 252 254 258 261 263 260 258 266 275 278 282 289 280 278 282 288 290 289 290 290 291 294 293